TimeEST,TemperatureF,Dew PointF,Humidity,Sea Level PressureIn,VisibilityMPH,Wind Direction,Wind SpeedMPH,Gust SpeedMPH,PrecipitationIn,Events,Conditions,WindDirDegrees,DateUTC
12:15 AM,37.4,30.2,75,30.16,7.0,SSE,6.9,-,N/A,Rain,Light Rain,160,2013-02-11 05:15:00
12:35 AM,35.6,32.0,87,30.16,7.0,SSE,9.2,-,N/A,,Drizzle,160,2013-02-11 05:35:00
12:55 AM,35.6,32.0,87,30.15,5.0,SE,6.9,-,N/A,Rain,Rain,140,2013-02-11 05:55:00
1:15 AM,35.6,32.0,87,30.13,5.0,SE,6.9,-,0.01,,Drizzle,140,2013-02-11 06:15:00
1:35 AM,35.6,33.8,93,30.13,7.0,SE,4.6,-,0.01,Rain,Rain,140,2013-02-11 06:35:00
2:15 AM,35.6,33.8,93,30.12,4.0,SSE,4.6,-,0.01,Rain,Heavy Rain,150,2013-02-11 07:15:00
2:35 AM,33.8,33.8,100,30.09,5.0,SE,4.6,-,0.02,Rain,Rain,140,2013-02-11 07:35:00
2:55 AM,33.8,33.8,100,30.09,5.0,SE,3.5,-,0.02,,Drizzle,140,2013-02-11 07:55:00
3:15 AM,33.8,33.8,100,30.07,3.0,SE,5.8,-,0.01,Rain,Heavy Rain,130,2013-02-11 08:15:00
3:35 AM,33.8,33.8,100,30.05,4.0,South,3.5,-,0.02,Rain,Light Rain,170,2013-02-11 08:35:00
3:55 AM,33.8,33.8,100,30.04,7.0,Calm,Calm,-,0.02,Rain,Rain,0,2013-02-11 08:55:00
4:15 AM,33.8,33.8,100,30.03,7.0,Calm,Calm,-,N/A,,Overcast,0,2013-02-11 09:15:00
4:35 AM,33.8,33.8,100,30.03,10.0,SSE,3.5,-,N/A,,Overcast,160,2013-02-11 09:35:00
4:55 AM,33.8,33.8,100,30.01,7.0,SE,4.6,-,N/A,,Overcast,130,2013-02-11 09:55:00
5:15 AM,35.6,35.6,100,30.00,7.0,SE,4.6,-,N/A,,Overcast,130,2013-02-11 10:15:00
5:35 AM,35.6,35.6,100,30.00,10.0,SSE,5.8,-,N/A,,Overcast,150,2013-02-11 10:35:00
5:55 AM,35.6,35.6,100,29.99,10.0,South,4.6,-,N/A,,Overcast,170,2013-02-11 10:55:00
6:15 AM,35.6,35.6,100,29.98,10.0,South,4.6,-,N/A,,Overcast,170,2013-02-11 11:15:00
6:35 AM,35.6,35.6,100,29.97,10.0,SSW,3.5,-,N/A,,Overcast,200,2013-02-11 11:35:00
6:55 AM,35.6,35.6,100,29.96,10.0,SSE,4.6,-,N/A,,Mostly Cloudy,160,2013-02-11 11:55:00
7:15 AM,35.6,35.6,100,29.96,10.0,SSE,3.5,-,N/A,,Mostly Cloudy,160,2013-02-11 12:15:00
7:35 AM,35.6,35.6,100,29.95,7.0,SE,4.6,-,N/A,,Scattered Clouds,130,2013-02-11 12:35:00
7:55 AM,35.6,35.6,100,29.95,10.0,SSE,5.8,-,N/A,,Clear,150,2013-02-11 12:55:00
8:15 AM,35.6,35.6,100,29.93,10.0,SSE,3.5,-,N/A,,Clear,150,2013-02-11 13:15:00
8:35 AM,37.4,37.4,100,29.93,10.0,SE,5.8,-,N/A,,Clear,140,2013-02-11 13:35:00
8:55 AM,41.0,41.0,100,29.93,10.0,SSE,4.6,-,N/A,,Clear,160,2013-02-11 13:55:00
9:15 AM,42.8,41.0,93,29.93,10.0,South,5.8,-,N/A,,Clear,190,2013-02-11 14:15:00
9:35 AM,44.6,42.8,93,29.92,10.0,SSW,5.8,-,N/A,,Scattered Clouds,200,2013-02-11 14:35:00
9:55 AM,46.4,44.6,93,29.91,10.0,South,6.9,-,N/A,,Scattered Clouds,180,2013-02-11 14:55:00
10:15 AM,48.2,44.6,87,29.89,10.0,SW,6.9,-,N/A,Rain,Light Rain,220,2013-02-11 15:15:00
10:35 AM,50.0,46.4,87,29.89,10.0,SW,6.9,-,N/A,,Scattered Clouds,220,2013-02-11 15:35:00
10:55 AM,50.0,44.6,82,29.87,10.0,SSW,8.1,-,N/A,,Clear,200,2013-02-11 15:55:00
11:15 AM,51.8,46.4,82,29.87,10.0,SSW,8.1,-,N/A,,Clear,200,2013-02-11 16:15:00
11:35 AM,51.8,46.4,82,29.85,10.0,SW,4.6,-,N/A,,Clear,230,2013-02-11 16:35:00
11:55 AM,53.6,46.4,77,29.83,10.0,SW,9.2,-,N/A,,Scattered Clouds,220,2013-02-11 16:55:00
12:15 PM,53.6,48.2,82,29.81,10.0,SSW,11.5,-,N/A,,Clear,200,2013-02-11 17:15:00
12:35 PM,55.4,50.0,82,29.80,10.0,SSW,10.4,-,N/A,,Clear,200,2013-02-11 17:35:00
12:55 PM,57.2,50.0,77,29.78,10.0,SW,8.1,-,N/A,,Scattered Clouds,220,2013-02-11 17:55:00
1:15 PM,60.8,50.0,68,29.76,10.0,SW,8.1,-,N/A,,Clear,220,2013-02-11 18:15:00
1:35 PM,60.8,50.0,68,29.75,10.0,South,9.2,-,N/A,,Scattered Clouds,190,2013-02-11 18:35:00
1:55 PM,62.6,51.8,68,29.75,10.0,SW,9.2,-,N/A,,Scattered Clouds,230,2013-02-11 18:55:00
2:15 PM,62.6,50.0,63,29.72,10.0,SSW,6.9,-,N/A,,Scattered Clouds,200,2013-02-11 19:15:00
2:35 PM,62.6,51.8,68,29.72,10.0,South,5.8,-,N/A,,Scattered Clouds,170,2013-02-11 19:35:00
2:55 PM,64.4,48.2,56,29.71,10.0,SSW,17.3,25.3,N/A,,Scattered Clouds,210,2013-02-11 19:55:00
3:15 PM,64.4,46.4,52,29.71,10.0,SW,12.7,23.0,N/A,,Scattered Clouds,220,2013-02-11 20:15:00
3:35 PM,64.4,46.4,52,29.71,10.0,SW,17.3,27.6,N/A,,Scattered Clouds,230,2013-02-11 20:35:00
3:55 PM,64.4,46.4,52,29.71,10.0,SW,17.3,27.6,N/A,,Scattered Clouds,230,2013-02-11 20:55:00
4:15 PM,64.4,44.6,49,29.70,10.0,SW,12.7,23.0,N/A,,Clear,220,2013-02-11 21:15:00
4:35 PM,62.6,44.6,52,29.70,10.0,SW,11.5,24.2,N/A,,Clear,220,2013-02-11 21:35:00
4:55 PM,62.6,44.6,52,29.70,10.0,SW,13.8,23.0,N/A,,Clear,220,2013-02-11 21:55:00
5:55 PM,60.8,37.4,42,29.69,10.0,WSW,12.7,18.4,N/A,,Clear,240,2013-02-11 22:55:00
6:15 PM,62.6,32.0,32,29.70,10.0,WSW,11.5,23.0,N/A,,Clear,240,2013-02-11 23:15:00
6:35 PM,60.8,30.2,31,29.70,10.0,WSW,17.3,31.1,N/A,,Clear,250,2013-02-11 23:35:00
6:55 PM,60.8,28.4,29,29.71,10.0,WSW,12.7,24.2,N/A,,Mostly Cloudy,250,2013-02-11 23:55:00
7:15 PM,59.0,28.4,31,29.71,10.0,WSW,12.7,17.3,N/A,,Scattered Clouds,250,2013-02-12 00:15:00
7:35 PM,59.0,28.4,31,29.71,10.0,West,11.5,-,N/A,,Clear,260,2013-02-12 00:35:00
7:55 PM,57.2,28.4,33,29.73,10.0,West,15.0,-,N/A,,Clear,270,2013-02-12 00:55:00
8:15 PM,55.4,28.4,36,29.74,10.0,West,15.0,19.6,N/A,,Scattered Clouds,280,2013-02-12 01:15:00
8:35 PM,55.4,28.4,36,29.75,10.0,West,17.3,25.3,N/A,,Scattered Clouds,280,2013-02-12 01:35:00
8:55 PM,55.4,28.4,36,29.76,10.0,West,20.7,26.5,N/A,,Clear,270,2013-02-12 01:55:00
9:15 PM,55.4,28.4,36,29.77,10.0,West,19.6,23.0,N/A,,Clear,280,2013-02-12 02:15:00
9:35 PM,53.6,28.4,38,29.77,10.0,West,16.1,24.2,N/A,,Mostly Cloudy,280,2013-02-12 02:35:00
9:55 PM,53.6,28.4,38,29.78,10.0,West,24.2,33.4,N/A,,Scattered Clouds,270,2013-02-12 02:55:00
10:15 PM,53.6,28.4,38,29.80,10.0,West,20.7,27.6,N/A,,Clear,280,2013-02-12 03:15:00
10:35 PM,51.8,26.6,38,29.81,10.0,West,25.3,36.8,N/A,,Scattered Clouds,280,2013-02-12 03:35:00
10:55 PM,51.8,28.4,41,29.81,10.0,West,31.1,46.0,N/A,,Scattered Clouds,270,2013-02-12 03:55:00
11:15 PM,50.0,28.4,43,29.82,10.0,West,29.9,40.3,N/A,,Clear,280,2013-02-12 04:15:00
11:35 PM,46.4,32.0,57,29.83,10.0,WNW,12.7,32.2,N/A,,Clear,300,2013-02-12 04:35:00
11:55 PM,44.6,32.0,61,29.84,10.0,WNW,13.8,19.6,N/A,,Clear,290,2013-02-12 04:55:00